Waarnemingen

Advertentie
Mijn weer
Lille, Frankrijk (7015): temperatuur & dauwpunt: 20.05.2018 10:00:00 - 26.05.2018 10:00:00 (CEST)Lille, Frankrijk (7015): temperatuur 5cm: 20.05.2018 10:00:00 - 26.05.2018 10:00:00 (CEST)Lille, Frankrijk (7015): temperatuur -20cm & temperatuur -100cm: 20.05.2018 10:00:00 - 26.05.2018 10:00:00 (CEST)Lille, Frankrijk (7015): windsnelheid & windstoten: 20.05.2018 10:00:00 - 26.05.2018 10:00:00 (CEST)Lille, Frankrijk (7015): windrichting: 20.05.2018 10:00:00 - 26.05.2018 10:00:00 (CEST)Lille, Frankrijk (7015): luchtdruk: 20.05.2018 10:00:00 - 26.05.2018 10:00:00 (CEST)Lille, Frankrijk (7015): zicht: 20.05.2018 10:00:00 - 26.05.2018 10:00:00 (CEST)Lille, Frankrijk (7015): Zonneschijnduur: 20.05.2018 10:00:00 - 26.05.2018 10:00:00 (CEST)Lille, Frankrijk (7015): neerslag: 20.05.2018 10:00:00 - 26.05.2018 10:00:00 (CEST)
Datum & Tijd tt [°C] td [°C] tt 5cm [°C] tt -20cm [°C] tt -100cm [°C] ff [km/u] ff [kn] fx [km/u] fx [kn] dd ppp [hPa] vv [km] sd [min] rr [mm]
26.05.2018 10:00:00 19,3 15,6 22,0 17,6 14,1 12 6 18 10 NO 1018,2 2,3 60 0,0
26.05.2018 09:00:00 17,5 14,9 16,4 17,5 14,1 11 6 17 9 NO 1018,4 2,1 55 0,0
26.05.2018 08:00:00 15,1 14,3 15,3 17,6 14,1 8 5 21 11 N 1018,2 1,4 5 0,0
26.05.2018 07:00:00 15,0 14,4 15,0 17,8 14,1 13 7 19 10 NNO 1018,0 1,2 3 0,0
26.05.2018 06:00:00 15,1 14,3 15,0 17,9 14,1 13 7 20 11 N 1017,8 1,1 0 0,0
26.05.2018 05:00:00 15,4 14,6 15,1 18,2 14,1 10 5 19 11 NNW 1017,9 1,4 0 0,0
26.05.2018 04:00:00 15,3 14,3 15,2 18,4 14,1 10 5 39 21 WNW 1018,4 1,1 0 0,0
26.05.2018 03:00:00 15,7 14,2 15,5 18,7 14,1 10 5 34 18 NW 1018,9 1,8 0 0,0
26.05.2018 02:00:00 16,0 14,2 15,8 18,9 14,0 7 4 17 9 NNW 1018,2 2,1 0 0,0
26.05.2018 01:00:00 16,3 14,3 16,2 19,3 14,1 11 6 20 11 NNO 1018,5 1,9 0 0,0
26.05.2018 00:00:00 16,8 14,8 16,4 19,7 14,0 9 5 25 13 N 1018,4 2,3 0 0,0
25.05.2018 23:00:00 17,9 15,2 17,3 20,2 14,0 16 9 27 15 N 1018,2 2,6 0 0,0
25.05.2018 22:00:00 19,0 16,0 18,1 20,8 14,0 12 7 26 14 N 1018,0 2,9 0 0,0
25.05.2018 21:00:00 20,1 16,1 19,9 21,4 14,0 16 9 26 14 N 1017,2 3,4 0 0,0
25.05.2018 20:00:00 21,7 16,2 22,9 21,9 14,0 17 9 26 14 N 1017,3 3,9 18 0,0
25.05.2018 19:00:00 23,5 16,0 24,7 22,2 14,0 5 3 17 9 O 1017,0 4,6 29 0,0
25.05.2018 18:00:00 24,4 15,1 29,2 22,0 14,0 6 3 14 8 NNO 1017,1 10 60 0,0
25.05.2018 17:00:00 23,6 12,9 25,3 21,6 14,0 4 2 12 6 ZW 1017,7 19 46 0,0
25.05.2018 16:00:00 24,0 15,8 24,9 20,9 13,9 5 3 15 8 ZO 1017,7 15 50 0,0
25.05.2018 15:00:00 23,1 14,1 27,3 20,1 13,9 4 2 19 11 ZZW 1017,9 10 57 0,0
25.05.2018 14:00:00 21,9 14,0 27,1 19,1 13,9 3 2 14 7 O 1017,8 8 60 0,0
25.05.2018 13:00:00 20,6 15,4 25,1 18,2 13,9 5 3 12 6 Z 1018,0 5 58 0,0
25.05.2018 12:00:00 18,5 14,8 21,6 17,5 13,9 5 3 11 6 ZW 1018,1 4,4 36 0,0
25.05.2018 11:00:00 17,0 14,8 17,7 17,0 13,9 5 3 11 6 ZZW 1018,1 4,1 12 0,0
25.05.2018 10:00:00 15,0 14,2 16,5 16,8 13,9 5 3 12 7 ZZW 1017,9 2,8 0 0,0
25.05.2018 09:00:00 14,4 14,2 14,8 16,7 13,9 6 4 11 6 Z 1017,9 1,0 0 0,0
25.05.2018 08:00:00 14,7 14,4 14,8 16,7 13,9 6 3 10 5 ZZO 1017,4 0,3 0 0,0
25.05.2018 07:00:00 14,6 14,3 14,3 16,7 13,9 4 2 10 5 ZZO 1017,2 1,6 0 0,0
25.05.2018 06:00:00 14,4 13,9 14,3 16,8 13,9 6 4 9 5 ZO 1016,9 1,2 0 0,0
25.05.2018 05:00:00 14,8 14,5 14,4 16,9 13,9 3 2 9 5 Z 1016,7 1,5 0 0,0
25.05.2018 04:00:00 15,0 14,7 14,9 17,0 13,9 6 3 11 6 W 1016,5 0,7 0 0,0
25.05.2018 03:00:00 15,2 14,9 13,9 17,1 13,9 5 3 16 9 W 1016,7 0,9 0 0,0
25.05.2018 02:00:00 14,2 13,7 13,7 17,3 13,9 9 5 13 7 Z 1016,6 5 0 0,0
25.05.2018 01:00:00 14,3 13,7 13,2 17,6 13,9 6 3 22 12 Z 1016,9 8 0 0,3
25.05.2018 00:00:00 15,0 14,2 14,4 17,9 13,9 8 4 22 12 WZW 1016,4 12 0 3,4
24.05.2018 23:00:00 15,9 14,6 15,2 18,3 13,8 13 7 31 17 Z 1016,5 2,8 0 8,2
24.05.2018 22:00:00 18,0 17,0 16,7 18,6 13,8 6 3 9 5 Z 1016,6 2,2 0 0,0
24.05.2018 21:00:00 18,2 16,4 17,7 18,8 13,8 8 4 19 10 NNO 1016,1 4,2 0 0,0
24.05.2018 20:00:00 19,2 16,1 18,7 18,9 13,8 4 2 8 5 N 1015,8 8 11 0,0
24.05.2018 19:00:00 17,6 15,4 15,2 19,1 13,8 6 3 12 7 N 1015,2 16 0 0,8
24.05.2018 18:00:00 16,9 13,8 15,6 19,6 13,8 13 7 29 16 OZO 1016,3 4,2 0 1,0
24.05.2018 17:00:00 19,8 16,1 18,9 19,8 13,8 7 4 31 17 WZW 1016,1 6 0 0,4
24.05.2018 16:00:00 23,0 13,7 24,7 19,6 13,8 2 1 11 6 Z 1015,9 11 8 0,0
24.05.2018 15:00:00 23,0 14,0 25,5 19,1 13,7 6 3 16 9 ZO 1016,5 13 4 0,0
24.05.2018 14:00:00 23,2 15,0 27,4 18,4 13,7 8 5 14 7 OZO 1017,0 15 16 0,0
24.05.2018 13:00:00 22,5 14,9 25,8 17,7 13,7 4 2 15 8 O 1017,3 13 38 0,0
24.05.2018 12:00:00 21,3 14,9 24,0 17,1 13,7 4 2 11 6 N 1017,8 10 44 0,0
24.05.2018 11:00:00 18,8 14,9 18,9 16,6 13,7 0 0 11 6 N 1018,2 7 0 0,0
24.05.2018 10:00:00 17,9 14,2 19,2 16,4 13,7 9 5 16 9 ONO 1018,6 8 2 0,0
24.05.2018 09:00:00 17,1 13,8 17,6 16,3 13,7 8 4 18 10 NO 1018,5 8 0 0,0
24.05.2018 08:00:00 16,5 14,7 16,1 16,3 13,7 5 3 13 7 NO 1018,6 5 32 0,0
24.05.2018 07:00:00 16,0 14,7 14,9 16,3 13,7 7 4 17 9 NNO 1018,8 9 19 0,0
24.05.2018 06:00:00 15,4 14,4 14,8 16,4 13,7 8 4 14 7 NO 1018,8 7 0 0,0
24.05.2018 05:00:00 15,4 14,3 15,0 16,5 13,7 9 5 14 8 NO 1018,9 6 0 0,0
24.05.2018 04:00:00 15,6 14,8 15,1 16,6 13,7 8 4 13 7 NO 1019,0 4,4 0 0,0
24.05.2018 03:00:00 15,9 15,4 15,4 16,8 13,7 5 3 16 9 NNO 1019,0 2,1 0 0,0
24.05.2018 02:00:00 16,1 15,5 15,6 16,9 13,7 10 5 23 12 NNO 1019,3 3,0 0 1,4
24.05.2018 01:00:00 16,2 15,2 15,5 17,1 13,7 16 9 26 14 ONO 1020,2 4,3 0 6,9
24.05.2018 00:00:00 16,4 14,8 15,6 17,3 13,7 12 7 20 11 N 1019,6 2,1 0 0,0
23.05.2018 23:00:00 16,7 15,4 16,1 17,5 13,6 5 3 10 5 N 1019,6 2,0 0 0,0
23.05.2018 22:00:00 17,0 16,0 16,2 17,8 13,7 10 6 21 11 W 1019,5 2,9 0 0,0
23.05.2018 21:00:00 17,0 15,3 16,2 18,1 13,6 9 5 22 12 WZW 1019,3 4,5 0 0,8
23.05.2018 20:00:00 18,4 15,6 17,2 18,3 13,6 9 5 22 12 N 1018,8 5 11 1,2
23.05.2018 19:00:00 19,9 16,7 18,5 18,2 13,6 14 8 29 16 N 1018,7 3,4 21 0,0
23.05.2018 18:00:00 18,7 16,3 17,7 18,2 13,6 15 8 30 16 N 1018,9 3,2 13 2,0
23.05.2018 17:00:00 20,7 14,6 23,1 17,7 13,6 16 9 31 17 NNW 1018,6 6 21 0,0
23.05.2018 16:00:00 20,5 14,8 23,5 17,2 13,6 14 7 27 15 NNO 1019,0 7 5 0,0
23.05.2018 15:00:00 19,7 14,7 20,3 16,9 13,6 16 9 25 13 NNO 1019,4 8 0 0,0
23.05.2018 14:00:00 18,4 14,3 19,9 16,6 13,6 14 8 22 12 NNO 1019,9 6 0 0,0
23.05.2018 13:00:00 18,0 15,3 19,6 16,2 13,6 12 7 21 11 N 1020,0 4,5 7 0,0
23.05.2018 12:00:00 15,7 14,1 16,6 15,9 13,5 14 8 22 12 NNW 1019,9 3,6 0 0,0
23.05.2018 11:00:00 14,6 13,5 15,0 15,7 13,6 14 8 22 12 NNW 1019,8 2,1 0 0,6
23.05.2018 10:00:00 14,5 12,2 14,8 15,6 13,5 11 6 19 10 NNW 1019,7 4,7 0 0,0
23.05.2018 09:00:00 13,4 11,6 13,2 15,6 13,6 10 5 23 12 NNW 1019,5 4,5 0 0,0
23.05.2018 08:00:00 12,7 11,1 12,7 15,7 13,5 15 8 24 13 NNW 1019,0 4,9 0 0,0
23.05.2018 07:00:00 12,5 10,9 12,4 15,8 13,5 11 6 31 17 NNW 1018,4 6 0 0,0
23.05.2018 06:00:00 12,5 10,9 12,3 16,0 13,5 16 9 31 17 NW 1018,0 7 0 0,0
23.05.2018 05:00:00 12,5 10,9 12,1 16,2 13,5 15 8 24 13 NW 1017,5 6 0 0,0
23.05.2018 04:00:00 12,7 10,9 12,2 16,4 13,5 15 8 26 14 NW 1017,4 6 0 0,0
23.05.2018 03:00:00 12,6 10,5 12,0 16,6 13,5 15 8 23 12 NW 1017,2 8 0 0,0
23.05.2018 02:00:00 12,5 10,6 11,9 17,0 13,5 10 6 19 10 WNW 1017,2 7 0 0,0
23.05.2018 01:00:00 13,1 10,6 12,4 17,3 13,5 10 5 28 15 NW 1017,1 8 0 0,0
23.05.2018 00:00:00 14,3 11,1 13,6 17,8 13,5 18 10 29 16 NW 1016,4 8 0 0,0
22.05.2018 23:00:00 16,9 11,2 14,7 18,2 13,5 9 5 13 7 NNW 1016,2 12 0 0,0
22.05.2018 22:00:00 17,1 13,0 15,3 18,5 13,4 9 5 13 7 NNW 1015,4 17 28 0,0
22.05.2018 21:00:00 16,2 12,7 14,6 18,9 13,4 8 5 53 29 OZO 1015,3 20 0 0,6
22.05.2018 20:00:00 21,4 11,4 21,2 19,2 13,4 13 7 30 16 N 1013,9 5 0 0,0
22.05.2018 19:00:00 21,0 11,6 21,0 19,5 13,4 17 9 37 20 NNW 1013,8 14 0 0,0
22.05.2018 18:00:00 21,8 11,5 23,3 19,6 13,4 24 13 40 22 NNW 1013,8 13 2 0,0
22.05.2018 17:00:00 24,0 12,3 24,8 19,3 13,4 24 13 39 21 NW 1012,7 14 47 0,0
22.05.2018 16:00:00 22,3 12,8 22,7 19,2 13,4 21 11 33 18 NNW 1012,6 19 0 0,0
22.05.2018 15:00:00 22,3 12,8 23,4 19,0 13,4 15 8 25 14 N 1012,6 17 18 0,0
22.05.2018 14:00:00 23,1 13,0 25,7 18,4 13,4 11 6 29 16 NNW 1012,7 14 13 0,0
22.05.2018 13:00:00 23,3 13,2 25,9 17,5 13,4 6 3 21 11 NW 1012,8 11 52 0,0
22.05.2018 12:00:00 21,7 12,5 27,6 16,6 13,4 9 5 20 11 NW 1013,0 16 56 0,0
22.05.2018 11:00:00 20,4 12,1 23,7 15,9 13,3 11 6 21 11 NNW 1012,8 6 58 0,0
22.05.2018 10:00:00 18,8 12,5 20,4 15,5 13,4 8 5 17 9 NW 1012,8 9 57 0,0
22.05.2018 09:00:00 14,8 11,8 14,8 15,3 13,3 9 5 16 9 W 1012,9 3,9 38 0,0
22.05.2018 08:00:00 13,1 11,0 12,2 15,3 13,3 5 3 10 5 WZW 1012,6 3,2 58 0,0
22.05.2018 07:00:00 10,8 9,9 9,7 15,5 13,4 5 3 11 6 W 1012,3 1,6 17 0,0
22.05.2018 06:00:00 10,5 9,4 8,4 15,8 13,4 6 4 12 7 W 1012,1 1,6 0 0,0
22.05.2018 05:00:00 10,9 9,5 9,2 16,1 13,3 6 3 9 5 W 1012,0 1,8 0 0,0
22.05.2018 04:00:00 11,5 9,9 10,6 16,4 13,3 8 5 13 7 W 1011,7 2,2 0 0,0
22.05.2018 03:00:00 12,2 10,1 11,1 16,8 13,4 7 4 16 9 W 1011,7 2,9 0 0,0
22.05.2018 02:00:00 12,9 10,3 12,0 17,2 13,3 10 5 15 8 W 1011,7 3,9 0 0,0
22.05.2018 01:00:00 14,1 10,7 12,8 17,6 13,3 11 6 16 8 W 1012,0 4,6 0 0,0
22.05.2018 00:00:00 16,2 10,5 14,9 18,0 13,3 9 5 19 10 WZW 1012,1 12 0 0,0
21.05.2018 23:00:00 16,2 10,5 14,4 18,4 13,3 3 2 16 9 W 1012,2 16 0 0,0
21.05.2018 22:00:00 17,5 10,4 15,6 18,9 13,3 11 6 18 10 WNW 1011,7 21 0 0,0
21.05.2018 21:00:00 19,8 10,5 18,7 19,5 13,3 5 3 21 12 WNW 1011,7 27 0 0,0
21.05.2018 20:00:00 21,0 11,3 20,5 20,0 13,3 9 5 21 12 O 1011,3 35 0 0,0
21.05.2018 19:00:00 22,9 10,7 23,6 20,4 13,3 13 7 21 11 O 1011,2 37 0 0,0
21.05.2018 18:00:00 24,2 10,8 24,2 20,3 13,3 15 8 27 15 ONO 1011,3 31 46 0,0
21.05.2018 17:00:00 22,9 10,3 24,9 20,0 13,3 12 7 29 16 NO 1011,7 27 33 0,0
21.05.2018 16:00:00 23,5 10,5 25,4 19,3 13,3 12 6 36 20 O 1012,4 20 51 0,0
21.05.2018 15:00:00 23,1 9,8 27,5 18,5 13,3 16 9 33 18 NO 1012,9 17 60 0,0
21.05.2018 14:00:00 21,3 11,0 25,0 17,6 13,3 14 8 40 21 NO 1013,3 30 51 0,0
21.05.2018 13:00:00 20,5 10,3 24,4 16,9 13,3 20 11 34 18 ONO 1014,0 9 51 0,0
21.05.2018 12:00:00 20,2 11,1 21,8 16,2 13,2 12 6 28 15 O 1014,2 20 29 0,0
21.05.2018 11:00:00 20,0 11,0 20,3 15,8 13,2 18 10 31 17 ONO 1014,7 30 38 0,0
21.05.2018 10:00:00 18,4 10,2 19,1 15,5 13,2 16 9 26 14 ONO 1015,0 25 34 0,0
21.05.2018 09:00:00 17,2 10,8 15,0 15,3 13,2 19 10 29 16 NO 1015,5 9 40 0,0
21.05.2018 08:00:00 14,9 10,9 14,0 15,4 13,2 15 8 24 13 NNO 1016,1 14 0 0,0
21.05.2018 07:00:00 14,9 10,5 14,6 15,5 13,2 10 6 21 12 NNO 1016,1 16 4 0,0
21.05.2018 06:00:00 14,8 10,4 14,1 15,7 13,3 11 6 18 10 NO 1016,3 20 0 0,0
21.05.2018 05:00:00 14,9 10,3 13,8 15,9 13,3 10 6 19 10 NO 1016,7 16 0 0,0
21.05.2018 04:00:00 15,2 10,4 14,6 16,1 13,2 10 6 17 9 NO 1017,0 11 0 0,0
21.05.2018 03:00:00 15,5 10,3 15,0 16,3 13,3 13 7 21 12 NO 1017,6 10 0 0,0
21.05.2018 02:00:00 15,4 10,4 15,0 16,5 13,3 14 7 21 11 NNO 1018,1 8 0 0,0
21.05.2018 01:00:00 15,1 10,5 14,2 16,9 13,2 13 7 21 11 NNO 1018,6 8 0 0,0
21.05.2018 00:00:00 15,1 10,1 14,1 17,3 13,2 12 6 19 10 N 1018,5 8 0 0,0
20.05.2018 23:00:00 16,2 10,3 15,1 17,8 13,2 10 6 15 8 NNO 1019,3 9 0 0,0
20.05.2018 22:00:00 18,1 10,2 17,4 18,3 13,3 12 7 27 14 NO 1019,1 16 0 0,0
20.05.2018 21:00:00 19,4 10,7 19,6 18,7 13,3 21 11 38 20 NO 1019,0 11 35 0,0
20.05.2018 20:00:00 21,2 10,9 22,8 19,1 13,3 19 10 32 17 NO 1018,4 17 60 0,0
20.05.2018 19:00:00 22,1 7,1 25,9 19,2 13,3 16 9 28 15 NO 1018,3 20 60 0,0
20.05.2018 18:00:00 21,8 7,2 27,1 19,0 13,2 15 8 26 14 NO 1018,6 22 60 0,0
20.05.2018 17:00:00 21,4 6,9 27,3 18,5 13,3 12 6 30 16 NO 1019,3 19 60 0,0
20.05.2018 16:00:00 21,5 8,0 27,3 17,6 13,2 12 6 29 15 NNO 1020,1 13 60 0,0
20.05.2018 15:00:00 20,8 8,1 25,4 16,6 13,2 12 7 31 17 ONO 1020,9 16 58 0,0
20.05.2018 14:00:00 19,7 9,0 25,5 15,5 13,2 12 7 32 17 NO 1021,5 11 58 0,0
20.05.2018 13:00:00 18,8 10,6 24,3 14,5 13,2 14 8 28 15 NNO 1022,1 12 60 0,0
20.05.2018 12:00:00 16,9 9,8 20,3 13,8 13,2 11 6 23 13 N 1022,7 6 60 0,0
20.05.2018 11:00:00 14,4 9,8 16,1 13,3 13,3 7 4 23 12 NO 1023,2 7 39 0,0
20.05.2018 10:00:00 11,5 9,4 12,8 13,0 13,2 12 7 21 11 NNO 1023,4 7 30 0,0

tt = temperatuur
td = dauwpunt
tt 5cm = temperatuur 5cm
tt -20cm = temperatuur -20cm
tt -100cm = temperatuur -100cm
ff = windsnelheid
fx = windstoten
dd = windrichting
ppp = luchtdruk
vv = zicht
sd = Zonneschijnduur
rr = neerslag

Weerstations in de omgeving